Location: Powder Track
(41.8531°N, 72.3584°W)
Time: 09:35:05
(UTC+00:00)

Transit 4A - Pass Details

Date: 08 August 2021
Orbit: 871 x 974 km, 66.8° (Epoch: 20 September)

Event Time Altitude Azimuth Distance (km) Brightness Sun altitude
Rises 02:57:05 0° 206° (SSW) 3,491 - -26.0°
Reaches altitude 10° 02:59:34 10° 206° (SSW) 2,542 - -26.2°
Exits shadow 03:04:56 75° 186° (S) 911 7.6 -26.7°
Maximum altitude 03:05:27 84° 119° (ESE) 886 7.6 -26.8°
Drops below altitude 10° 03:11:17 10° 31° (NNE) 2,525 10.5 -27.3°
Sets 03:13:46 0° 31° (NNE) 3,466 11.3 -27.5°
